Regional Weather Roundup
Issued by NWS Wakefield, VA

Home | Current Version | Previous Version | Text Only | Print | Product List | Glossary On
Versions: 1 2 3 4 5 6 7 8 9 10 11 12 13 14 15 16 17 18 19 20 21 22 23 24 25 26 27
000
ASUS41 KAKQ 181114
RWRAKQ

REGIONAL WEATHER ROUNDUP
NATIONAL WEATHER SERVICE WAKEFIELD VA
600 AM EST SAT NOV 18 2017

Note: "fair" indicates few or no clouds below 12,000 feet with no
significant weather and/or obstructions to visibility. * = Denotes
station may not report precipitation (e.g., rain,snow,etc.),
thunder or fog.

VAZ042-051-052>054-056-181200-
NORTHERN VIRGINIA

CITY           SKY/WX    TMP DP  RH WIND       PRES   REMARKS
WASH NATIONAL  MOCLDY    40  34  79 S12       29.97F
DULLES         MOCLDY    40  32  73 S12       29.93F
FORT BELVOIR   PTCLDY    29  28  93 SE3       29.97F
QUANTICO       NOT AVBL
FREDERICKSBRG* PTCLDY    32  32 100 CALM      29.98F
STAFFORD*      PTCLDY    28  28 100 CALM      30.02S
WARRENTON      NOT AVBL
CULPEPER*      PTCLDY    39  31  71 S8        29.94F
MANASSAS*      PTCLDY    35  31  85 S9        29.94F
LEESBURG*      PTCLDY    36  32  87 S8        29.93F
WINCHESTER     MOCLDY    37  27  65 S5        29.86F
FRONT ROYAL*   CLOUDY    41  28  60 MISG      29.85F
LURAY*         CLOUDY    43  30  61 S6        29.88F
$$

VAZ048-049-060>072-079>083-181200-
CENTRAL AND SOUTH CENTRAL VIRGINIA

CITY           SKY/WX    TMP DP  RH WIND       PRES   REMARKS
RICHMOND       PTCLDY    56  33  42 S9        30.02F
CHESTERFIELD*  NOT AVBL
PETERSBURG*    MOCLDY   N/A N/A N/A CALM      30.04F
HANOVER        PTCLDY    38  32  79 S9        30.01F
TAPPAHANNOCK*    N/A    N/A N/A N/A MISG        N/A
QUINTON*       FAIR      35  32  88 S7        30.02F
CHARLOTTSVILLE CLOUDY    40  31  70 S7        29.93F
GORDONSVILLE*  CLOUDY    35  31  86 SW6       29.95F
ORANGE*        CLOUDY    34  30  86 S8        29.95F
LOUISA*          N/A     36  30  79 S8          N/A
BUMPASS*       FAIR      37  32  81 S3        29.98F
FARMVILLE*     CLOUDY    41  37  84 S9        29.97F
CREWE*         FAIR      36  36 100 CALM      30.01F
FORT PICKETT*  NOT AVBL
CHASE CITY*    FAIR      40  36  83 S3        30.01F
CLARKSVILLE*   FAIR      41  34  75 S7        30.02F
SOUTH HILL*    CLOUDY    36  35  97 S3        30.09S
LAWRENCEVILLE* FAIR      35  33  91 SW3       30.04S
EMPORIA*       CLOUDY    32  32 100 SE3       30.07S
$$

VAZ088>098-181200-
SOUTHEAST VIRGINIA

CITY           SKY/WX    TMP DP  RH WIND       PRES   REMARKS
NORFOLK        CLEAR     35  31  85 S8        30.07S
VIRGINIA BEACH PTCLDY    36  31  82 SW6       30.07S
NORFOLK NAVAL  PTCLDY    40  34  79 SW9       30.08S
WEST POINT*    CLOUDY    38  33  81 S5        30.06F
SALUDA*        FAIR      38  35  90 S6        30.04F
NEWPORT NEWS   CLOUDY    40  33  76 S5        30.06F
LANGLEY AFB    CLOUDY    41  35  79 S9        30.06F
FORT EUSTIS    CLOUDY    42  34  74 S7        30.03F
WILLIAMSBURG*  CLOUDY    41  36  81 S8        30.06F
HR EXEC AP*    NOT AVBL
FRANKLIN*      PTCLDY    35  32  90 S6        30.07F
US460-WAKEFLD  PTCLDY    37  33  85 S3        30.06S
$$

VAZ020-022-025-037-045-181200-
WEST CENTRAL AND SOUTHWEST VIRGINIA

CITY           SKY/WX    TMP DP  RH WIND       PRES   REMARKS
STAUNTON*      CLOUDY    38  29  70 CALM      29.91F
WAYNESBORO*    CLOUDY    39  30  70 CALM      29.90F
HOT SPRINGS VA CLOUDY    45  18  34 SW12      29.87F
LYNCHBURG      CLOUDY    40  32  73 S10       29.96F
DANVILLE       CLOUDY    41  35  79 S6        30.00F
SOUTH BOSTON*  FAIR      33  32  96 CALM      30.01F
MARTINSVILLE   PTCLDY    40  33  75 S3        30.01F
ROANOKE        PTCLDY    38  31  76 CALM      29.96F
BLACKSBURG     CLOUDY    37  32  84 CALM      29.96F
DUBLIN*        CLOUDY    37  32  81 SW3       29.94F
MARION*        CLOUDY    38  30  70 CALM      29.95F
HILLSVILLE*    CLOUDY    45  32  61 S9G16     29.93F
RICHLANDS*     FAIR      56 -22   4 SW15G23   29.89F
WISE*          CLOUDY    50  32  50 SW8       29.91S
ABINGDON*      CLOUDY    44  33  64 CALM      29.93F
$$

MDZ021>025-VAZ099-100-181200-
SOUTHERN MARYLAND AND THE DELMARVA PENINSULA

CITY           SKY/WX    TMP DP  RH WIND       PRES   REMARKS
PATUXENT RIVER NOT AVBL
BAY BRIDGE APT CLEAR     45  36  70 S7        29.99F
LEONARDTOWN    PTCLDY    39  32  75 SW6       30.01F
DOVER          PTCLDY    34  34 100 S8        30.01F
GEORGETOWN     CLOUDY    33  28  81 S5        30.03F
EASTON         PTCLDY    37  32  81 S5        30.04F
CAMBRIDGE      CLEAR     30  30 100 SE6       30.01F FOG
SALISBURY      CLEAR     30  29  96 S3        30.03F
OCEAN CITY     CLEAR     33  31  92 CALM      30.05F
WALLOPS ISLAND CLEAR     42  36  79 SW8       30.05F
ACCOMACK*      CLEAR     40  35  81 S8        30.05S
$$

NCZ012>017-030>032-181200-
NORTH CENTRAL AND EASTERN NORTH CAROLINA

CITY           SKY/WX    TMP DP  RH WIND       PRES   REMARKS
ROANOKE RAPIDS FAIR      34  34 100 CALM      30.06F
RALEIGH        MOCLDY    38  35  89 SW7       30.06S
ELIZABETH CITY CLEAR     38  38 100 S3        30.09S
AHOSKIE*       CLOUDY    33  32  99 S3        30.08F
EDENTON*       CLEAR     43  39  86 CALM      30.09F
CURRITUCK*     CLEAR     37  37  99 CALM      30.09F
KILL DEVIL HLS CLEAR     45  38  78 CALM      30.08F
MANTEO         CLEAR     47  40  75 SW8       30.10F
CAPE HATTERAS  CLEAR     37  37 100 CALM      30.10S
TARBORO*       NOT AVBL
GOLDSBORO      PTCLDY    34  31  89 SE5       30.07S
WASHINGTON     PTCLDY    33  32  95 CALM      30.09F
GREENVILLE     MOCLDY    34  34 100 CALM      30.10F
NEW BERN       FOG       32  32 100 CALM      30.10F VSB 1/4
WILMINGTON     CLEAR     37  36  96 CALM      30.09F
$$

VAZ048-181200-
ELSEWHERE

CITY           SKY/WX    TMP DP  RH WIND       PRES   REMARKS
HARRISBURG PA  CLOUDY    33  28  81 CALM      29.91F
BALTIMORE      MOCLDY    36  31  82 SE3       29.95F
ANNAPOLIS      NOT AVBL
ANDREWS AFB    PTCLDY    37  30  77 S10       29.95F
PHILADELPHIA   CLOUDY    34  29  82 SE3       30.00F
HENDERSON NC   PTCLDY    36  31  85 S6        30.04S
GREENSBORO     CLOUDY    41  35  79 SW5       30.01F
ROCKY MOUNT    PTCLDY    34  34 100 CALM      30.07F
$$

VAZ100-181200-
MARINE

STATION/POSITION TIME  TEMP    WIND        PRES    WAVE   SWELL
                       AIR SEA DIR/SP/G            HT/PER HT/PER
                 (UTC) (F)     (DEG/KT/KT) (MB)    (FT/S) (FT/S)
15NM E FENWICK I 1050   52 59  220/ 12/ 16 1017.4F   2/11   2/11
THOMAS POINT MD  1100   47 53  200/ 21/ 23   N/A
CAPE HENRY BUOY  1100      60                N/A     3/ 3
CAPE CHARLES BUO 1051      58                N/A     3/ 3
64NM E OF VA BCH 1050   54 60  230/ 14/ 17 1018.7R   3/12   2/12
44100 DUCK FRF   0945      62                N/A     3/11   2/11
44056 DUCK FRF   1100      58                N/A     2/12   2/12
DIAMOND SHLS NC  1100   55 64   20/  4/  6 1019.3
CAPE LOOKOUT NC  1100   51      10/  5/  5 1019.5R
$$




USA.gov is the U.S. government's official web portal to all federal, state and local government web resources and services.